Location: ????????
(55.3155°N, 39.2900°E)
Time: 17:50:21
(UTC+00:00)

ACS3 Solar Sail - Pass Details

Date: 16 November 2025
Orbit: 889 x 1003 km, 97.3° (Epoch: 06 December)

Event Time Altitude Azimuth Distance (km) Brightness Sun altitude
Rises 02:25:20 0° 10° (N) 3,550 4.8 -21.3°
Reaches altitude 10° 02:27:59 10° 0° (N) 2,620 4.0 -20.9°
Enters shadow 02:32:34 30° 309° (NW) 1,615 2.5 -20.3°
